Date,TemperatureHighF,TemperatureAvgF,TemperatureLowF,DewpointHighF,DewpointAvgF,DewpointLowF,HumidityHigh,HumidityAvg,HumidityLow,PressureMaxIn,PressureMinIn,WindSpeedMaxMPH,WindSpeedAvgMPH,GustSpeedMaxMPH,PrecipitationSumIn
2013-2-1,74.8,62.9,52.0,56.7,50.0,41.3,80,63,49,30.29,30.18,14,2,14,0.00
2013-2-2,75.7,64.4,56.0,57.7,52.1,40.6,89,66,48,30.28,30.13,10,1,10,0.00
2013-2-3,74.9,64.2,54.7,57.5,51.6,41.6,95,67,34,30.19,30.08,8,0,8,0.00
2013-2-4,76.8,62.7,50.0,57.4,50.5,41.3,89,67,40,30.17,30.05,9,0,9,0.00
2013-2-5,79.0,67.3,54.7,64.7,60.0,53.6,96,79,56,30.11,30.02,10,0,10,0.00
2013-2-6,81.2,70.6,61.2,67.4,63.9,60.3,98,81,57,30.13,30.04,11,1,11,0.00
2013-2-7,83.0,73.2,63.3,67.8,64.7,61.5,96,76,55,30.10,29.97,14,1,14,0.00
2013-2-8,83.2,73.6,68.0,73.0,68.4,59.9,96,84,65,30.05,29.94,14,2,14,0.25
2013-2-9,79.8,71.2,63.1,69.4,64.2,59.1,98,79,64,30.19,30.04,14,2,14,0.00
2013-2-10,77.5,72.3,67.4,66.6,63.2,60.8,81,73,61,30.26,30.16,18,2,18,0.02
2013-2-11,80.0,73.0,67.1,67.7,65.2,62.4,89,77,64,30.24,30.13,12,1,12,0.00
2013-2-12,83.7,73.4,63.9,71.2,67.4,62.6,98,83,60,30.14,30.00,12,1,12,0.00
2013-2-13,83.8,75.9,68.2,73.8,70.7,67.3,98,85,70,30.04,29.93,14,2,14,0.00
2013-2-14,84.5,73.9,62.5,74.8,69.0,61.3,97,86,60,30.04,29.88,20,2,20,0.77
2013-2-15,73.0,66.8,62.7,70.3,65.6,61.8,98,96,86,30.04,29.96,7,0,7,1.07
2013-2-16,74.3,65.9,55.1,64.8,58.0,46.6,97,78,41,30.11,29.90,21,3,21,0.03
2013-2-17,60.2,52.4,45.7,47.3,32.6,23.5,76,49,28,30.33,30.11,18,2,18,0.00
2013-2-18,70.2,60.1,46.9,57.5,47.6,37.1,71,64,51,30.33,30.22,16,2,16,0.00
2013-2-19,78.5,69.8,58.4,67.5,62.4,54.5,95,78,65,30.22,30.10,11,1,11,0.00
2013-2-20,80.0,71.9,65.8,68.9,66.0,61.6,97,83,56,30.14,30.03,13,1,13,0.00
2013-2-21,81.3,73.8,65.1,68.9,66.9,63.6,97,80,61,30.11,30.01,11,1,11,0.00
2013-2-22,82.8,76.2,71.6,72.5,70.6,67.9,92,83,69,30.12,30.03,14,2,14,0.00
2013-2-23,84.2,77.2,72.2,73.8,71.5,69.0,95,83,68,30.07,29.94,13,2,13,0.00
2013-2-24,86.8,77.3,71.7,74.0,71.5,65.1,98,83,51,30.02,29.92,14,1,14,0.00
2013-2-25,85.7,77.1,69.5,74.4,71.0,68.0,97,82,61,29.94,29.83,14,1,14,0.00
2013-2-26,84.5,79.2,75.2,74.2,72.4,70.2,93,80,64,29.92,29.82,20,4,20,0.10
2013-2-27,77.4,71.1,66.4,73.7,67.9,64.6,96,90,71,29.99,29.88,7,0,7,0.21
2013-2-28,72.3,66.0,60.8,65.3,56.6,50.0,96,73,52,30.03,29.93,10,1,10,0.00